When you browse on this site, cookies collect data to enhance your experience and personalize the content and advertising you see.
Visit our Privacy Policy to learn more. By continuing to use the site, you agree to this use of cookies and data.
  • Em Portugal
  • Lista de países
  • Para 7 dias
  • Temperatura da água
  • Mapas de satélite
  • Mapa do tempo
  • Widgets de tempo
  • user-avatar
    Iniciar Sessão

    Previsão horária em Sharan

    Hoje, 21 Julho, Domingo

    Tempo Temperatura Precipitação Vento Pressão Humidade
    00:00 +25°C° 0.1 mm 1 m/s 588 mmHg 55%
    01:00 +25°C° 0.1 mm 1 m/s 588 mmHg 56%
    02:00 +25°C° 0.1 mm 1 m/s 588 mmHg 57%
    03:00 +22°C° 0.1 mm 0 m/s 588 mmHg 59%
    04:00 +22°C° 0.1 mm 0 m/s 587 mmHg 61%
    05:00 +23°C° 0 mm 1 m/s 587 mmHg 63%
    06:00 +24°C° 0 mm 1 m/s 588 mmHg 55%
    07:00 +25°C° 0 mm 1 m/s 589 mmHg 47%
    08:00 +26°C° 0 mm 2 m/s 589 mmHg 38%
    09:00 +28°C° 0 mm 2 m/s 590 mmHg 32%
    10:00 +29°C° 0 mm 2 m/s 590 mmHg 25%
    11:00 +31°C° 0 mm 2 m/s 590 mmHg 17%
    12:00 +31°C° 0 mm 2 m/s 590 mmHg 15%
    13:00 +32°C° 0 mm 2 m/s 590 mmHg 13%
    14:00 +34°C° 0 mm 2 m/s 590 mmHg 11%
    15:00 +34°C° 0 mm 2 m/s 590 mmHg 13%
    16:00 +34°C° 0 mm 2 m/s 589 mmHg 14%
    17:00 +34°C° 0 mm 3 m/s 589 mmHg 16%
    18:00 +32°C° 0 mm 4 m/s 589 mmHg 26%
    19:00 +29°C° 0 mm 5 m/s 588 mmHg 37%
    20:00 +27°C° 0 mm 7 m/s 588 mmHg 48%
    21:00 +27°C° 0.1 mm 5 m/s 588 mmHg 51%
    22:00 +26°C° 0.1 mm 3 m/s 588 mmHg 53%
    23:00 +26°C° 0.1 mm 1 m/s 588 mmHg 56%

    Amanhã, 22 Julho, Segunda-feira

    Tempo Temperatura Precipitação Vento Pressão Humidade
    00:00 +25°C° 0.2 mm 1 m/s 588 mmHg 58%
    01:00 +25°C° 0.2 mm 1 m/s 587 mmHg 59%
    02:00 +22°C° 0.2 mm 0 m/s 587 mmHg 61%
    03:00 +22°C° 0 mm 0 m/s 587 mmHg 62%
    04:00 +21°C° 0 mm 0 m/s 587 mmHg 64%
    05:00 +21°C° 0 mm 0 m/s 587 mmHg 65%
    06:00 +22°C° 0 mm 0 m/s 587 mmHg 60%
    07:00 +23°C° 0 mm 0 m/s 588 mmHg 55%
    08:00 +25°C° 0 mm 1 m/s 588 mmHg 49%
    09:00 +27°C° 0 mm 1 m/s 589 mmHg 41%
    10:00 +28°C° 0 mm 1 m/s 589 mmHg 32%
    11:00 +30°C° 0 mm 1 m/s 589 mmHg 24%
    12:00 +31°C° 0 mm 1 m/s 589 mmHg 21%
    13:00 +32°C° 0 mm 2 m/s 590 mmHg 17%
    14:00 +34°C° 0 mm 2 m/s 590 mmHg 14%
    15:00 +34°C° 0 mm 2 m/s 589 mmHg 14%
    16:00 +34°C° 0 mm 2 m/s 589 mmHg 14%
    17:00 +35°C° 0 mm 2 m/s 589 mmHg 14%
    18:00 +31°C° 0 mm 3 m/s 588 mmHg 25%
    19:00 +29°C° 0 mm 5 m/s 588 mmHg 36%
    20:00 +27°C° 0 mm 6 m/s 587 mmHg 47%
    21:00 +27°C° 0 mm 5 m/s 587 mmHg 47%
    22:00 +26°C° 0 mm 3 m/s 587 mmHg 47%
    23:00 +26°C° 0 mm 1 m/s 588 mmHg 48%

    Depois de amanhã, 23 Julho, Terça-feira

    Tempo Temperatura Precipitação Vento Pressão Humidade
    00:00 +26°C° 0 mm 1 m/s 587 mmHg 48%
    01:00 +25°C° 0 mm 1 m/s 587 mmHg 49%
    02:00 +25°C° 0 mm 1 m/s 587 mmHg 50%
    03:00 +24°C° 0 mm 1 m/s 587 mmHg 51%
    04:00 +22°C° 0 mm 0 m/s 586 mmHg 52%
    05:00 +21°C° 0 mm 0 m/s 586 mmHg 53%
    06:00 +22°C° 0 mm 0 m/s 587 mmHg 49%
    07:00 +23°C° 0 mm 0 m/s 587 mmHg 45%
    08:00 +24°C° 0 mm 0 m/s 588 mmHg 41%
    09:00 +27°C° 0 mm 1 m/s 588 mmHg 35%
    10:00 +29°C° 0 mm 1 m/s 589 mmHg 30%
    11:00 +30°C° 0 mm 1 m/s 589 mmHg 24%
    12:00 +31°C° 0 mm 1 m/s 589 mmHg 21%
    13:00 +33°C° 0 mm 1 m/s 589 mmHg 18%
    14:00 +35°C° 0 mm 2 m/s 589 mmHg 15%
    15:00 +35°C° 0 mm 2 m/s 589 mmHg 14%
    16:00 +36°C° 0 mm 2 m/s 588 mmHg 13%
    17:00 +36°C° 0 mm 3 m/s 588 mmHg 12%
    18:00 +35°C° 0 mm 3 m/s 588 mmHg 14%
    19:00 +34°C° 0 mm 3 m/s 588 mmHg 17%
    20:00 +33°C° 0 mm 3 m/s 587 mmHg 19%
    21:00 +31°C° 0 mm 3 m/s 587 mmHg 26%
    22:00 +30°C° 0 mm 2 m/s 587 mmHg 32%
    23:00 +29°C° 0 mm 2 m/s 587 mmHg 39%

    24 Julho, Quarta-feira

    Tempo Temperatura Precipitação Vento Pressão Humidade
    00:00 +28°C° 0 mm 2 m/s 587 mmHg 41%
    01:00 +27°C° 0 mm 2 m/s 586 mmHg 43%
    02:00 +27°C° 0 mm 2 m/s 586 mmHg 46%
    03:00 +26°C° 0 mm 1 m/s 586 mmHg 47%
    04:00 +25°C° 0 mm 1 m/s 585 mmHg 48%
    05:00 +25°C° 0 mm 1 m/s 585 mmHg 48%
    06:00 +26°C° 0 mm 1 m/s 586 mmHg 44%
    07:00 +25°C° 0 mm 0 m/s 587 mmHg 39%
    08:00 +26°C° 0 mm 0 m/s 587 mmHg 34%
    09:00 +30°C° 0 mm 1 m/s 588 mmHg 28%
    10:00 +31°C° 0 mm 1 m/s 588 mmHg 22%
    11:00 +33°C° 0 mm 1 m/s 589 mmHg 16%
    12:00 +35°C° 0 mm 2 m/s 589 mmHg 14%
    13:00 +36°C° 0 mm 2 m/s 588 mmHg 12%
    14:00 +37°C° 0 mm 2 m/s 588 mmHg 10%
    15:00 +37°C° 0 mm 3 m/s 588 mmHg 9%
    16:00 +37°C° 0 mm 3 m/s 588 mmHg 9%
    17:00 +38°C° 0 mm 3 m/s 587 mmHg 9%
    18:00 +36°C° 0 mm 4 m/s 587 mmHg 14%
    19:00 +35°C° 0 mm 5 m/s 587 mmHg 19%
    20:00 +33°C° 0 mm 6 m/s 586 mmHg 24%
    21:00 +32°C° 0 mm 5 m/s 586 mmHg 29%
    22:00 +30°C° 0 mm 3 m/s 586 mmHg 35%
    23:00 +29°C° 0 mm 2 m/s 586 mmHg 40%

    25 Julho, Quinta-feira

    Tempo Temperatura Precipitação Vento Pressão Humidade
    00:00 +28°C° 0 mm 2 m/s 586 mmHg 42%
    01:00 +28°C° 0 mm 2 m/s 586 mmHg 44%
    02:00 +27°C° 0 mm 2 m/s 586 mmHg 46%
    03:00 +26°C° 0 mm 2 m/s 585 mmHg 46%
    04:00 +26°C° 0 mm 1 m/s 585 mmHg 47%
    05:00 +25°C° 0 mm 1 m/s 585 mmHg 48%
    06:00 +26°C° 0 mm 1 m/s 586 mmHg 44%
    07:00 +27°C° 0 mm 1 m/s 586 mmHg 40%
    08:00 +28°C° 0 mm 2 m/s 587 mmHg 35%
    09:00 +30°C° 0 mm 2 m/s 587 mmHg 31%
    10:00 +31°C° 0 mm 2 m/s 588 mmHg 27%
    11:00 +34°C° 0 mm 2 m/s 588 mmHg 23%
    12:00 +35°C° 0 mm 2 m/s 588 mmHg 20%
    13:00 +36°C° 0 mm 2 m/s 588 mmHg 17%
    14:00 +37°C° 0 mm 3 m/s 588 mmHg 15%
    15:00 +35°C° 0 mm 5 m/s 587 mmHg 22%
    16:00 +34°C° 0 mm 8 m/s 587 mmHg 29%
    17:00 +33°C° 0 mm 10 m/s 586 mmHg 36%
    18:00 +32°C° 0.1 mm 10 m/s 586 mmHg 40%
    19:00 +31°C° 0.1 mm 9 m/s 585 mmHg 44%
    20:00 +28°C° 0.1 mm 8 m/s 585 mmHg 47%
    21:00 +28°C° 0.1 mm 7 m/s 586 mmHg 49%
    22:00 +27°C° 0.1 mm 5 m/s 586 mmHg 52%
    23:00 +27°C° 0.1 mm 4 m/s 586 mmHg 54%

    26 Julho, Sexta-feira

    Tempo Temperatura Precipitação Vento Pressão Humidade
    00:00 +26°C° 0.1 mm 3 m/s 586 mmHg 55%
    01:00 +26°C° 0.1 mm 2 m/s 586 mmHg 56%
    02:00 +26°C° 0.1 mm 1 m/s 586 mmHg 57%
    03:00 +25°C° 0.1 mm 1 m/s 585 mmHg 58%
    04:00 +25°C° 0.1 mm 1 m/s 585 mmHg 60%
    05:00 +22°C° 0.1 mm 0 m/s 585 mmHg 61%
    06:00 +23°C° 0.1 mm 0 m/s 585 mmHg 58%
    07:00 +25°C° 0.1 mm 1 m/s 586 mmHg 56%
    08:00 +26°C° 0.1 mm 1 m/s 586 mmHg 53%
    09:00 +28°C° 0 mm 1 m/s 586 mmHg 46%
    10:00 +29°C° 0 mm 1 m/s 587 mmHg 38%
    11:00 +31°C° 0 mm 1 m/s 587 mmHg 31%
    12:00 +32°C° 0.1 mm 2 m/s 587 mmHg 27%
    13:00 +34°C° 0.1 mm 2 m/s 587 mmHg 22%
    14:00 +36°C° 0.1 mm 3 m/s 588 mmHg 18%
    15:00 +35°C° 0.2 mm 4 m/s 587 mmHg 23%
    16:00 +34°C° 0.2 mm 5 m/s 587 mmHg 28%
    17:00 +34°C° 0.2 mm 7 m/s 586 mmHg 32%
    18:00 +32°C° 1.3 mm 6 m/s 586 mmHg 38%
    19:00 +28°C° 1.3 mm 6 m/s 586 mmHg 45%
    20:00 +26°C° 1.3 mm 6 m/s 585 mmHg 51%
    21:00 +26°C° 0.3 mm 5 m/s 585 mmHg 51%
    22:00 +26°C° 0.3 mm 3 m/s 586 mmHg 50%
    23:00 +26°C° 0.3 mm 2 m/s 586 mmHg 50%
    Mostrar mais